EW7659 Weather Reports


Display with metric or nautical units.
time (UTC)temp
F
wind
direction
speed
MPH
gust
MPH
rain 1hr
in
rain 24hr
in
rain mn
in
humidity
%
barometer
mb
20260504231435 78 168 1.0 6.0 0.00 0.00 0.00 56 998.0
20260504230936 78 162 1.0 7.0 0.00 0.00 0.00 56 997.9
20260504230434 78 155 1.0 8.0 0.00 0.00 0.00 56 997.9
20260504230156 78 181 1.0 15.0 0.00 0.00 0.00 56 997.9
20260504225432 78 188 1.0 15.0 0.00 0.00 0.00 57 997.9
20260504225153 78 173 1.0 11.0 0.00 0.00 0.00 56 997.9
20260504224651 78 156 1.0 11.0 0.00 0.00 0.00 57 997.9
20260504224412 78 150 1.0 8.0 0.00 0.00 0.00 56 997.9
20260504223432 78 184 2.0 8.0 0.00 0.00 0.00 55 997.9
20260504222932 78 199 1.0 10.0 0.00 0.00 0.00 55 997.9
20260504222650 79 175 1.0 14.0 0.00 0.00 0.00 55 997.9
20260504221932 79 197 1.0 14.0 0.00 0.00 0.00 54 997.9
20260504221651 79 157 2.0 18.0 0.00 0.00 0.00 54 997.7
20260504220932 79 175 2.0 18.0 0.00 0.00 0.00 53 997.7
20260504220432 80 223 2.0 14.0 0.00 0.00 0.00 53 997.6
20260504215931 80 141 1.0 12.0 0.00 0.00 0.00 52 997.7
20260504215431 80 159 1.0 11.0 0.00 0.00 0.00 52 997.7
20260504214931 80 170 2.0 11.0 0.00 0.00 0.00 52 997.7
20260504214919 80 157 3.0 13.0 0.00 0.00 0.00 52 997.9
20260504213931 80 186 3.0 17.0 0.00 0.00 0.00 51 997.7
20260504213432 80 150 3.0 17.0 0.00 0.00 0.00 51 997.9
20260504212931 81 169 2.0 15.0 0.00 0.00 0.00 51 998.0
20260504212432 81 155 2.0 9.0 0.00 0.00 0.00 51 997.8
20260504211932 81 194 1.0 9.0 0.00 0.00 0.00 51 998.0
20260504211432 81 164 1.0 12.0 0.00 0.00 0.00 51 998.0
20260504210931 81 188 1.0 12.0 0.00 0.00 0.00 51 997.9
20260504210432 82 169 2.0 13.0 0.00 0.00 0.00 50 998.0
20260504210156 82 179 2.0 13.0 0.00 0.00 0.00 49 998.0
20260504205432 82 157 1.0 9.0 0.00 0.00 0.00 51 998.0
20260504204931 82 178 1.0 9.0 0.00 0.00 0.00 51 998.1
20260504204429 82 187 1.0 13.0 0.00 0.00 0.00 49 998.1
20260504203923 82 164 1.0 13.0 0.00 0.00 0.00 50 998.3
20260504203416 82 187 1.0 8.0 0.00 0.00 0.00 50 998.4
20260504202915 82 176 1.0 11.0 0.00 0.00 0.00 48 998.4
20260504202637 82 175 1.0 11.0 0.00 0.00 0.00 48 998.5
20260504201915 82 155 1.0 11.0 0.00 0.00 0.00 49 998.6
20260504201416 82 181 2.0 16.0 0.00 0.00 0.00 49 998.6
20260504201133 82 175 1.0 13.0 0.00 0.00 0.00 47 998.7
20260504201114 82 141 2.0 16.0 0.00 0.00 0.00 47 998.7
20260504195916 82 149 2.0 13.0 0.00 0.00 0.00 49 998.7
20260504195415 82 181 2.0 13.0 0.00 0.00 0.00 46 998.7
20260504194914 83 180 1.0 12.0 0.00 0.00 0.00 46 998.9
20260504194634 83 233 1.0 19.0 0.00 0.00 0.00 46 998.9
20260504193914 83 177 2.0 19.0 0.00 0.00 0.00 45 998.9
20260504193412 83 149 2.0 13.0 0.00 0.00 0.00 46 999.0
20260504192910 83 175 1.0 14.0 0.00 0.00 0.00 46 999.0
20260504192407 83 180 1.0 14.0 0.00 0.00 0.00 47 999.0
20260504191908 83 182 1.0 14.0 0.00 0.00 0.00 46 999.0
20260504191855 83 161 1.0 14.0 0.00 0.00 0.00 46 999.1
20260504190907 83 186 2.0 17.0 0.00 0.00 0.00 46 999.0
20260504190846 82 169 2.0 17.0 0.00 0.00 0.00 47 999.0
20260504185905 82 184 1.0 16.0 0.00 0.00 0.00 46 999.0
20260504185406 83 153 2.0 18.0 0.00 0.00 0.00 45 999.0
20260504184905 83 136 2.0 18.0 0.00 0.00 0.00 45 999.0
20260504184406 83 116 1.0 12.0 0.00 0.00 0.00 46 999.1
20260504184131 83 164 1.0 9.0 0.00 0.00 0.00 44 999.0
20260504183406 83 178 1.0 9.0 0.00 0.00 0.00 45 999.1
20260504182905 82 191 1.0 7.0 0.00 0.00 0.00 45 999.1
20260504182406 82 165 0.0 7.0 0.00 0.00 0.00 45 999.1
20260504181905 82 208 1.0 17.0 0.00 0.00 0.00 47 999.1
20260504181625 81 235 2.0 17.0 0.00 0.00 0.00 46 999.2
20260504180906 81 191 2.0 13.0 0.00 0.00 0.00 45 999.2
20260504180627 81 159 2.0 13.0 0.00 0.00 0.00 44 999.3
20260504175906 82 144 1.0 12.0 0.00 0.00 0.00 44 999.3
20260504175405 81 169 1.0 12.0 0.00 0.00 0.00 46 999.5
20260504174906 81 173 1.0 10.0 0.00 0.00 0.00 45 999.4
20260504174405 81 204 1.0 11.0 0.00 0.00 0.00 45 999.5
20260504173906 81 244 1.0 11.0 0.00 0.00 0.00 47 999.6
20260504173406 80 184 1.0 8.0 0.00 0.00 0.00 47 999.7
20260504172906 80 174 1.0 10.0 0.00 0.00 0.00 46 999.7
20260504172406 80 251 1.0 10.0 0.00 0.00 0.00 47 999.9
20260504171905 80 173 1.0 7.0 0.00 0.00 0.00 48 999.8
20260504171405 79 175 1.0 11.0 0.00 0.00 0.00 47 999.8
20260504170905 79 157 1.0 11.0 0.00 0.00 0.00 47 1000.0
20260504170406 78 199 1.0 11.0 0.00 0.00 0.00 47 1000.0
20260504160404 75 169 1.0 10.0 0.00 0.00 0.00 49 1000.7
20260504150900 73 191 1.0 17.0 0.00 0.00 0.00 52 1001.2
20260504150358 73 216 1.0 11.0 0.00 0.00 0.00 51 1001.2
20260504140837 69 221 0.0 5.0 0.00 0.00 0.00 56 1001.5
20260504140337 69 277 0.0 5.0 0.00 0.00 0.00 55 1001.5
20260504130332 64 171 0.0 7.0 0.00 0.00 0.00 62 1002.1
20260504110549 61 172 0.0 1.0 0.00 0.00 0.00 61 1002.1
20260504100322 63 161 0.0 0.0 0.00 0.00 0.00 58 1002.7
20260504081759 67 160 0.0 7.0 0.00 0.00 0.00 48 1003.2
20260504081251 67 187 0.0 7.0 0.00 0.00 0.00 48 1003.2
20260504080746 67 159 1.0 7.0 0.00 0.00 0.00 48 1003.2
20260504080503 67 164 0.0 7.0 0.00 0.00 0.00 48 1003.2
20260504070224 68 178 0.0 2.0 0.00 0.00 0.00 46 1003.9
20260504060214 69 173 1.0 6.0 0.00 0.00 0.00 44 1004.4
20260504050655 70 186 0.0 3.0 0.00 0.00 0.00 44 1004.6
20260504050153 70 148 0.0 1.0 0.00 0.00 0.00 43 1004.7
20260504045651 70 167 0.0 10.0 0.00 0.00 0.00 43 1004.6
20260504045149 71 167 1.0 10.0 0.00 0.00 0.00 43 1004.7
20260504044648 71 183 1.0 8.0 0.00 0.00 0.00 43 1004.7
20260504044145 71 168 1.0 11.0 0.00 0.00 0.00 42 1004.7
20260504043643 71 151 1.0 11.0 0.00 0.00 0.00 42 1004.7
20260504043143 71 174 0.0 8.0 0.00 0.00 0.00 42 1004.8
20260504042641 71 176 0.0 8.0 0.00 0.00 0.00 43 1004.7
20260504042141 71 149 0.0 5.0 0.00 0.00 0.00 42 1004.8
20260504041640 71 169 0.0 5.0 0.00 0.00 0.00 43 1004.9
20260504041359 71 181 1.0 6.0 0.00 0.00 0.00 43 1004.9
20260504040637 71 194 1.0 8.0 0.00 0.00 0.00 43 1004.9
20260504040136 71 153 0.0 8.0 0.00 0.00 0.00 43 1005.0
20260504035633 71 164 0.0 4.0 0.00 0.00 0.00 43 1005.1
20260504035132 71 180 0.0 4.0 0.00 0.00 0.00 43 1005.1
20260504034633 71 182 0.0 0.0 0.00 0.00 0.00 43 1005.2
20260504034131 71 182 0.0 1.0 0.00 0.00 0.00 43 1005.1
20260504033630 71 184 0.0 2.0 0.00 0.00 0.00 43 1005.1
20260504033130 71 184 0.0 4.0 0.00 0.00 0.00 43 1005.1
20260504032624 71 181 1.0 7.0 0.00 0.00 0.00 43 1005.1
20260504032119 71 175 1.0 7.0 0.00 0.00 0.00 43 1005.0
20260504031614 71 175 0.0 4.0 0.00 0.00 0.00 43 1005.0
20260504031114 71 189 0.0 3.0 0.00 0.00 0.00 43 1005.0
20260504030615 72 182 0.0 1.0 0.00 0.00 0.00 42 1005.0
20260504030115 72 186 0.0 7.0 0.00 0.00 0.00 42 1005.0
20260504025614 72 178 1.0 7.0 0.00 0.00 0.00 42 1005.0
20260504025115 72 169 1.0 6.0 0.00 0.00 0.00 41 1004.9
20260504024615 72 177 0.0 1.0 0.00 0.00 0.00 41 1004.9
20260504024115 72 177 0.0 2.0 0.00 0.00 0.00 41 1004.8
20260504023617 73 178 0.0 2.0 0.00 0.00 0.00 41 1004.9
20260504023330 73 177 0.0 6.0 0.00 0.00 0.00 40 1004.8
20260504022611 73 178 0.0 6.0 0.00 0.00 0.00 40 1004.7
20260504022109 73 167 0.0 4.0 0.00 0.00 0.00 40 1004.7
20260504021608 73 167 0.0 4.0 0.00 0.00 0.00 39 1004.7
20260504021109 74 165 0.0 1.0 0.00 0.00 0.00 39 1004.6
20260504020609 74 164 0.0 5.0 0.00 0.00 0.00 39 1004.6
20260504020108 74 171 0.0 5.0 0.00 0.00 0.00 39 1004.6
20260504015607 74 169 0.0 5.0 0.00 0.00 0.00 39 1004.6
20260504015105 75 165 0.0 5.0 0.00 0.00 0.00 38 1004.6
20260504014604 75 178 0.0 3.0 0.00 0.00 0.00 38 1004.5
20260504014103 75 177 0.0 3.0 0.00 0.00 0.00 37 1004.5
20260504013602 75 175 0.0 1.0 0.00 0.00 0.00 37 1004.5
20260504013547 76 175 0.0 1.0 0.00 0.00 0.00 37 1004.5
20260504012603 76 217 0.0 4.0 0.00 0.00 0.00 36 1004.4
20260504012102 76 164 0.0 4.0 0.00 0.00 0.00 35 1004.4
20260504011602 77 157 0.0 3.0 0.00 0.00 0.00 35 1004.4
20260504011103 77 181 0.0 0.0 0.00 0.00 0.00 34 1004.4
20260504010605 77 181 0.0 0.0 0.00 0.00 0.00 33 1004.4
20260504010106 78 180 0.0 2.0 0.00 0.00 0.00 32 1004.5
20260504005602 78 181 0.0 2.0 0.00 0.00 0.00 31 1004.6
20260504005103 78 178 0.0 1.0 0.00 0.00 0.00 31 1004.6
20260504004833 79 175 0.0 3.0 0.00 0.00 0.00 30 1004.6
20260504004325 79 175 0.0 3.0 0.00 0.00 0.00 29 1004.6
20260504003603 79 174 0.0 3.0 0.00 0.00 0.00 29 1004.6
20260504003103 79 175 0.0 1.0 0.00 0.00 0.00 29 1004.7
20260504002825 80 200 0.0 3.0 0.00 0.00 0.00 29 1004.8
20260504002105 80 153 0.0 3.0 0.00 0.00 0.00 28 1004.7
20260504001829 80 151 0.0 4.0 0.00 0.00 0.00 28 1004.7
20260504001103 81 202 0.0 4.0 0.00 0.00 0.00 27 1004.7
20260504000602 81 167 0.0 3.0 0.00 0.00 0.00 27 1004.7
20260503235823 82 222 1.0 7.0 0.00 0.00 0.00 27 1004.7
20260503235105 82 235 0.0 9.0 0.00 0.00 0.00 26 1004.7
20260503234608 82 165 0.0 9.0 0.00 0.00 0.00 27 1004.6
20260503234105 82 175 0.0 7.0 0.00 0.00 0.00 27 1004.8
20260503233606 83 235 1.0 10.0 0.00 0.00 0.00 25 1004.7
20260503233103 83 197 1.0 10.0 0.00 0.00 0.00 26 1004.7
20260503232605 83 224 1.0 9.0 0.00 0.00 0.00 26 1004.7
20260503232102 83 157 1.0 9.0 0.00 0.00 0.00 26 1004.7
20260503231602 84 190 1.0 8.0 0.00 0.00 0.00 27 1004.7